Flag for Canada Weather past 2 weeks in Morden, Manitoba, Canada

Now
54 °F

Cool.


Feels Like: 49 °F
Forecast: 36 / 57 °F
Wind: 18 mph from West

Location: Morden CDA CS


UV Index: 3 (Moderate)

Visibility: N/A


Pressure: 29.72 "Hg

Humidity: 51%

Dew point: 36 °F

Location of MordenLocation

Historic Weather in Morden

°F

Morden temperature yesterday

Maximum temperature yesterday: 47 °F (at 6:00 PM)
Minimum temperature yesterday: 23 °F (at 3:00 AM)
Average temperature yesterday: 36 °F

Past Weeks' High & Low Weather Summary

 TemperatureHumidityPressure
High67 °F (Apr 9, 3:00 PM)99% (Apr 12, 6:00 PM)30.46 "Hg (Apr 12, 6:00 PM)
Low9 °F (Apr 15, 4:00 AM)26% (Apr 17, 2:00 PM)29.33 "Hg (Apr 9, 3:00 PM)
Average34 °F67%30.01 "Hg
* Reported Apr 4 12:00 Noon — Apr 19 12:00 Noon, Morden, Weather by CustomWeather, © 2014

Note: Actual official high and low records may vary slightly from our data, if they occured in-between our weather recording intervals... More about our weather records

Advertising

Historic Weather Conditions — Data for Previous 24 hours

 ConditionsComfort  
Time TempWeatherWind HumidityBarometerVisibility
12:00 PM
Apr 19
51 °FCool.17 mph55%29.73 "HgN/A
11:00 AM52 °FCool.15 mph58%29.70 "HgN/A
10:00 AM50 °FCool.12 mph68%29.69 "HgN/A
9:00 AM45 °FQuite cool.8 mph75%29.70 "HgN/A
8:00 AM37 °FChilly.5 mph87%29.71 "HgN/A
7:00 AM34 °FChilly.8 mph91%29.69 "HgN/A
6:00 AM35 °FChilly.7 mph87%29.71 "HgN/A
5:00 AM36 °FChilly.9 mph86%29.73 "HgN/A
4:00 AM35 °FChilly.15 mph88%29.74 "HgN/A
3:00 AM38 °FChilly.16 mph78%29.76 "HgN/A
2:00 AM38 °FChilly.16 mph79%29.81 "HgN/A
1:00 AM38 °FChilly.20 mph76%29.84 "HgN/A
12:00 AM40 °FChilly.17 mph69%29.87 "HgN/A
11:00 PM
Apr 18
41 °FQuite cool.18 mph64%29.91 "HgN/A
10:00 PM42 °FQuite cool.23 mph67%29.95 "HgN/A
9:00 PM43 °FQuite cool.18 mph57%30.00 "HgN/A
8:00 PM45 °FQuite cool.20 mph55%30.00 "HgN/A
7:00 PM46 °FCool.20 mph49%30.03 "HgN/A
6:00 PM47 °FCool.22 mph45%30.06 "HgN/A
5:00 PM47 °FCool.22 mph44%30.09 "HgN/A
4:00 PM46 °FCool.21 mph46%30.13 "HgN/A
3:00 PM45 °FCool.21 mph42%30.18 "HgN/A
2:00 PM45 °FCool.25 mph35%30.19 "HgN/A
1:00 PM45 °FCool.21 mph37%30.22 "HgN/A
Weather by CustomWeather, © 2014

See weather overview